This is the latest recevied weather packets stored in our database for station/object K4DNM. If no packets are shown the sender has not sent any weather packets the latest 1 day(s).
| Time | Temp. | Humidity | Pressure | Rain* | Wind** | Luminosity | Snow |
|---|---|---|---|---|---|---|---|
| 1778031315 | 21.11° C | 61% | 1014.6 hPa | 0 mm | - | 0 W/m² | - |
| 1778030955 | 21.11° C | 61% | 1014.6 hPa | 0 mm | - | 0 W/m² | - |
| 1778030652 | 21.11° C | 60% | 1014.7 hPa | 0 mm | - | 0 W/m² | - |
| 1778030412 | 21.67° C | 59% | 1014.5 hPa | 0 mm | - | 0 W/m² | - |
| 1778029454 | 21.67° C | 58% | 1014.2 hPa | 0 mm | - | 0 W/m² | - |
| 1778029153 | 21.67° C | 57% | 1014.2 hPa | 0 mm | - | 0 W/m² | - |
| 1778028854 | 22.22° C | 57% | 1014.1 hPa | 0 mm | - | 0 W/m² | - |
| 1778028612 | 22.22° C | 56% | 1014 hPa | 0 mm | - | 0 W/m² | - |
| 1778028253 | 22.22° C | 56% | 1013.9 hPa | 0 mm | - | 0 W/m² | - |
| 1778027953 | 22.22° C | 55% | 1013.9 hPa | 0 mm | - | 0 W/m² | - |
| 1778027654 | 22.22° C | 54% | 1013.8 hPa | 0 mm | - | 0 W/m² | - |
| 1778027352 | 22.78° C | 54% | 1013.7 hPa | 0 mm | - | 0 W/m² | - |
| 1778026451 | 23.33° C | 53% | 1013.7 hPa | 0 mm | - | 0 W/m² | - |
| 1778023445 | 24.44° C | 50% | 1013.2 hPa | 0 mm | - | 37 W/m² | - |
| 1778022545 | 24.44° C | 50% | 1013.2 hPa | 0 mm | - | 26 W/m² | - |
| 1778021346 | 24.44° C | 50% | 1013.3 hPa | 0 mm | - | 45 W/m² | - |
| 1778020807 | 25° C | 49% | 1013.3 hPa | 0 mm | - | 37 W/m² | - |
| 1778018638 | 26.11° C | 48% | 1013.4 hPa | 0 mm | - | 85 W/m² | - |
| 1778018037 | 26.11° C | 48% | 1013.5 hPa | 0 mm | - | 96 W/m² | - |
| 1778017738 | 26.11° C | 48% | 1013.5 hPa | 0 mm | - | 123 W/m² | - |
| 1778016535 | 26.67° C | 46% | 1013.3 hPa | 0 mm | - | 85 W/m² | - |
| 1778016295 | 26.11° C | 45% | 1013.3 hPa | 0 mm | - | 86 W/m² | - |
| 1778015637 | 26.67° C | 45% | 1013.5 hPa | 0 mm | - | 80 W/m² | - |
| 1778015337 | 26.67° C | 44% | 1013.4 hPa | 0 mm | - | 168 W/m² | - |
| 1778014437 | 26.67° C | 47% | 1013.6 hPa | 0 mm | - | 187 W/m² | - |
* Rain latest hour (hover to see other rain measurements)
** Current wind speed in m/s (hover to see current wind gust speed)